This is the latest recevied weather packets stored in our database for station/object KQ4KX. If no packets are shown the sender has not sent any weather packets the latest 10 day(s).
| Time | Temp. | Humidity | Pressure | Rain* | Wind** | Luminosity | Snow |
|---|---|---|---|---|---|---|---|
| 1778095834 | 34.44° C | 50% | 1015.4 hPa | 0 mm | - | - | - |
| 1778095534 | 34.44° C | 48% | 1015.5 hPa | 0 mm | - | - | - |
| 1778095234 | 34.44° C | 48% | 1015.6 hPa | 0 mm | - | - | - |
| 1778094934 | 34.44° C | 49% | 1015.7 hPa | 0 mm | - | - | - |
| 1778093974 | 34.44° C | 47% | 1016 hPa | 0 mm | - | - | - |
| 1778093674 | 34.44° C | 50% | 1016.2 hPa | 0 mm | - | - | - |
| 1778093344 | 33.89° C | 49% | 1016.2 hPa | 0 mm | - | - | - |
| 1778093044 | 33.33° C | 50% | 1016.2 hPa | 0 mm | - | - | - |
| 1778091154 | 33.33° C | 51% | 1016.6 hPa | 0 mm | - | - | - |
| 1778090524 | 32.78° C | 53% | 1016.6 hPa | 0 mm | - | - | - |
| 1778090224 | 32.22° C | 52% | 1016.7 hPa | 0 mm | - | - | - |
| 1778089564 | 32.78° C | 54% | 1016.9 hPa | 0 mm | - | - | - |
| 1778089264 | 32.78° C | 53% | 1017 hPa | 0 mm | - | - | - |
| 1778088934 | 32.78° C | 55% | 1017 hPa | 0 mm | - | - | - |
| 1778088634 | 32.78° C | 54% | 1017 hPa | 0 mm | - | - | - |
| 1778088334 | 32.78° C | 55% | 1017.1 hPa | 0 mm | - | - | - |
| 1778087674 | 32.78° C | 53% | 1017.2 hPa | 0 mm | - | - | - |
| 1778087344 | 32.78° C | 56% | 1017.2 hPa | 0 mm | - | - | - |
| 1778087014 | 32.78° C | 56% | 1017.3 hPa | 0 mm | - | - | - |
| 1778086054 | 32.22° C | 57% | 1017.4 hPa | 0 mm | - | - | - |
| 1778085724 | 32.22° C | 56% | 1017.4 hPa | 0 mm | - | - | - |
| 1778085424 | 32.22° C | 56% | 1017.4 hPa | 0 mm | - | - | - |
| 1778084824 | 32.22° C | 56% | 1017.4 hPa | 0 mm | - | - | - |
| 1778084494 | 32.22° C | 56% | 1017.4 hPa | 0 mm | - | - | - |
| 1778084194 | 32.22° C | 57% | 1017.6 hPa | 0 mm | - | - | - |
* Rain latest hour (hover to see other rain measurements)
** Current wind speed in m/s (hover to see current wind gust speed)